TimeEDT,TemperatureF,Dew PointF,Humidity,Sea Level PressureIn,VisibilityMPH,Wind Direction,Wind SpeedMPH,Gust SpeedMPH,PrecipitationIn,Events,Conditions,WindDirDegrees,DateUTC
12:15 AM,78.8,66.2,65,30.04,10.0,ESE,5.8,-,0.00,,Unknown,110,2013-08-06 04:15:00
12:35 AM,78.8,66.2,65,30.04,10.0,ESE,6.9,-,0.00,,Unknown,120,2013-08-06 04:35:00
12:55 AM,78.8,66.2,65,30.04,10.0,ESE,6.9,-,0.00,,Unknown,120,2013-08-06 04:55:00
1:15 AM,78.8,66.2,65,30.03,10.0,ESE,6.9,-,0.00,,Unknown,120,2013-08-06 05:15:00
1:35 AM,78.8,66.2,65,30.03,10.0,ESE,6.9,-,0.00,,Unknown,110,2013-08-06 05:35:00
1:55 AM,78.8,66.2,65,30.02,10.0,ESE,5.8,-,0.00,,Unknown,120,2013-08-06 05:55:00
2:15 AM,78.8,68.0,69,30.02,10.0,ESE,4.6,-,0.00,,Unknown,120,2013-08-06 06:15:00
2:35 AM,78.8,68.0,69,30.01,10.0,SE,5.8,-,0.00,,Unknown,130,2013-08-06 06:35:00
2:55 AM,78.8,68.0,69,30.01,10.0,SE,4.6,-,0.00,,Unknown,130,2013-08-06 06:55:00
3:15 AM,78.8,69.8,74,30.00,10.0,ESE,4.6,-,0.00,,Unknown,120,2013-08-06 07:15:00
3:35 AM,77.0,69.8,78,30.00,10.0,SE,5.8,-,0.00,,Unknown,130,2013-08-06 07:35:00
3:55 AM,77.0,69.8,78,29.99,10.0,Calm,Calm,-,0.00,,Unknown,0,2013-08-06 07:55:00
4:15 AM,77.0,69.8,78,29.98,10.0,Calm,Calm,-,0.00,,Unknown,0,2013-08-06 08:15:00
4:35 AM,77.0,69.8,78,29.97,10.0,SE,6.9,-,0.00,,Unknown,130,2013-08-06 08:35:00
4:55 AM,78.8,69.8,74,29.97,10.0,SE,4.6,-,0.00,,Unknown,130,2013-08-06 08:55:00
5:15 AM,78.8,68.0,69,29.97,10.0,SE,4.6,-,0.00,,Unknown,130,2013-08-06 09:15:00
5:35 AM,78.8,68.0,69,29.97,10.0,SE,6.9,-,0.00,,Unknown,130,2013-08-06 09:35:00
5:55 AM,78.8,68.0,69,29.97,10.0,Calm,Calm,-,0.00,,Unknown,0,2013-08-06 09:55:00
6:15 AM,78.8,68.0,69,29.98,10.0,SE,5.8,-,0.00,,Unknown,130,2013-08-06 10:15:00
6:35 AM,78.8,68.0,69,29.99,10.0,SE,4.6,-,0.00,,Unknown,130,2013-08-06 10:35:00
6:55 AM,78.8,68.0,69,29.99,10.0,SE,4.6,-,0.00,,Unknown,140,2013-08-06 10:55:00
7:15 AM,78.8,68.0,69,29.99,10.0,SE,5.8,-,0.00,,Unknown,130,2013-08-06 11:15:00
7:35 AM,80.6,68.0,65,30.00,10.0,Calm,Calm,-,0.00,,Unknown,0,2013-08-06 11:35:00
7:55 AM,80.6,69.8,70,30.01,10.0,SE,5.8,-,0.00,,Unknown,130,2013-08-06 11:55:00
8:15 AM,82.4,68.0,62,30.01,10.0,SE,6.9,-,0.00,,Unknown,140,2013-08-06 12:15:00
8:35 AM,82.4,68.0,62,30.02,10.0,SE,6.9,-,0.00,,Unknown,130,2013-08-06 12:35:00
8:55 AM,82.4,68.0,62,30.03,10.0,ESE,8.1,-,0.00,,Unknown,120,2013-08-06 12:55:00
9:15 AM,82.4,68.0,62,30.04,10.0,ESE,6.9,-,0.00,,Unknown,120,2013-08-06 13:15:00
9:35 AM,82.4,69.8,66,30.04,10.0,SE,6.9,-,0.00,,Unknown,140,2013-08-06 13:35:00
9:55 AM,82.4,68.0,62,30.04,10.0,SE,6.9,-,0.00,,Unknown,130,2013-08-06 13:55:00
10:15 AM,82.4,69.8,66,30.04,10.0,SE,6.9,-,0.00,,Unknown,140,2013-08-06 14:15:00
10:35 AM,82.4,69.8,66,30.05,10.0,SSE,5.8,-,0.00,,Unknown,150,2013-08-06 14:35:00
10:55 AM,82.4,69.8,66,30.05,10.0,SE,8.1,-,0.00,,Unknown,140,2013-08-06 14:55:00
11:15 AM,84.2,69.8,62,30.05,10.0,ESE,6.9,-,0.00,,Unknown,120,2013-08-06 15:15:00
11:35 AM,84.2,69.8,62,30.06,10.0,SE,9.2,-,0.00,,Unknown,140,2013-08-06 15:35:00
11:55 AM,84.2,69.8,62,30.06,10.0,SE,8.1,-,0.00,,Unknown,130,2013-08-06 15:55:00
12:15 PM,84.2,69.8,62,30.05,10.0,SE,8.1,-,0.00,,Unknown,130,2013-08-06 16:15:00
12:35 PM,84.2,69.8,62,30.06,10.0,SE,10.4,-,0.00,,Unknown,130,2013-08-06 16:35:00
12:55 PM,84.2,69.8,62,30.06,10.0,ESE,5.8,-,0.00,,Unknown,110,2013-08-06 16:55:00
1:15 PM,84.2,69.8,62,30.05,10.0,SSE,8.1,-,0.00,,Unknown,160,2013-08-06 17:15:00
1:35 PM,84.2,69.8,62,30.05,10.0,SE,6.9,-,0.00,,Unknown,130,2013-08-06 17:35:00
1:55 PM,84.2,69.8,62,30.04,10.0,ESE,9.2,-,0.00,,Unknown,120,2013-08-06 17:55:00
2:15 PM,84.2,71.6,66,30.04,10.0,SE,6.9,-,0.00,,Unknown,130,2013-08-06 18:15:00
2:35 PM,84.2,71.6,66,30.04,10.0,SE,5.8,-,0.00,,Unknown,130,2013-08-06 18:35:00
2:55 PM,84.2,71.6,66,30.04,10.0,SE,9.2,-,0.00,,Unknown,140,2013-08-06 18:55:00
3:15 PM,84.2,71.6,66,30.03,10.0,SE,6.9,-,0.00,,Unknown,130,2013-08-06 19:15:00
3:35 PM,84.2,71.6,66,30.03,10.0,SE,8.1,-,0.00,,Unknown,130,2013-08-06 19:35:00
3:55 PM,84.2,71.6,66,30.03,10.0,SE,6.9,-,0.00,,Unknown,130,2013-08-06 19:55:00
4:15 PM,84.2,69.8,62,30.02,10.0,ESE,11.5,-,0.00,,Unknown,110,2013-08-06 20:15:00
4:35 PM,86.0,71.6,62,30.03,10.0,SE,8.1,-,0.00,,Unknown,140,2013-08-06 20:35:00
4:55 PM,82.4,69.8,66,30.03,10.0,ESE,3.5,-,0.00,,Unknown,110,2013-08-06 20:55:00
5:15 PM,82.4,71.6,70,30.03,10.0,East,8.1,-,0.00,,Unknown,100,2013-08-06 21:15:00
5:35 PM,82.4,71.6,70,30.03,10.0,ESE,6.9,-,0.00,,Unknown,120,2013-08-06 21:35:00
5:55 PM,82.4,71.6,70,30.02,10.0,ESE,6.9,-,0.00,,Unknown,110,2013-08-06 21:55:00
6:15 PM,82.4,71.6,70,30.02,10.0,SE,5.8,-,0.00,,Unknown,130,2013-08-06 22:15:00
6:35 PM,82.4,71.6,70,30.02,10.0,ESE,6.9,-,0.00,,Unknown,110,2013-08-06 22:35:00
6:55 PM,82.4,69.8,66,30.02,10.0,SE,5.8,-,0.00,,Unknown,140,2013-08-06 22:55:00
7:15 PM,80.6,69.8,70,30.02,10.0,SE,5.8,-,0.00,,Unknown,140,2013-08-06 23:15:00
7:35 PM,80.6,69.8,70,30.02,10.0,SE,5.8,-,0.00,,Unknown,130,2013-08-06 23:35:00
7:55 PM,80.6,69.8,70,30.03,10.0,SE,3.5,-,0.00,,Unknown,130,2013-08-06 23:55:00
8:15 PM,80.6,69.8,70,30.03,10.0,ESE,5.8,-,0.00,,Unknown,120,2013-08-07 00:15:00
8:35 PM,80.6,69.8,70,30.03,10.0,Calm,Calm,-,0.00,,Unknown,0,2013-08-07 00:35:00
8:55 PM,80.6,69.8,70,30.04,10.0,Calm,Calm,-,0.00,,Unknown,0,2013-08-07 00:55:00
9:15 PM,80.6,69.8,70,30.04,10.0,ESE,5.8,-,0.00,,Unknown,110,2013-08-07 01:15:00
9:35 PM,80.6,69.8,70,30.05,10.0,ESE,5.8,-,0.00,,Unknown,110,2013-08-07 01:35:00
9:55 PM,80.6,69.8,70,30.05,10.0,Calm,Calm,-,0.00,,Unknown,0,2013-08-07 01:55:00
10:15 PM,80.6,69.8,70,30.05,10.0,ESE,5.8,-,0.00,,Unknown,120,2013-08-07 02:15:00
10:35 PM,80.6,69.8,70,30.05,10.0,ESE,5.8,-,0.00,,Unknown,120,2013-08-07 02:35:00
10:55 PM,78.8,69.8,74,30.05,10.0,ESE,3.5,-,0.00,,Unknown,110,2013-08-07 02:55:00
11:15 PM,78.8,69.8,74,30.05,10.0,Calm,Calm,-,0.00,,Unknown,0,2013-08-07 03:15:00
11:35 PM,78.8,69.8,74,30.05,10.0,Calm,Calm,-,0.00,,Unknown,0,2013-08-07 03:35:00
11:55 PM,78.8,69.8,74,30.04,10.0,East,5.8,-,0.00,,Unknown,100,2013-08-07 03:55:00